sat.trackr.live / text

‹ back to catalog

STARLINK-35218

NORAD 66340 · 2025-253X

PAYLOAD ACTIVE UNKNOWN

§ Identity

Operator
Country
US
Launch date
2025-11-06
Launch site
AFETR
Launch vehicle
Mass (kg)
RCS (m²)

Purposes: comms

External: N2YO · Heavens-Above · Gunter

§ Orbital elements

Epoch: 2026-05-25T00:17:33.702432Z

Period
94.27 min
Inclination
42.9983°
Eccentricity
0.0000924
Mean motion
15.27585771 rev/d
Perigee alt
482.4 km
Apogee alt
483.7 km
Semi-major
6,861.2 km
B*
9.4479e-4
RAAN
141.7667°
Arg perigee
289.4595°
Mean anomaly
70.6156°
Rev number
3,191

§ Raw data

STARLINK-352181 66340U 25253X   26145.01219563  .00025832  00000+0  94479-3 0  99962 66340  42.9983 141.7667 0000924 289.4595  70.6156 15.27585771 31912

JSON: /api/v1/satellites/66340 · /tle

For live sub-satellite position, see the globe view (requires WebGL).

§ Visibility from observer

Set your observer location to see the next 7 days of passes ≥ 10°. The values pass through the URL so the page stays shareable.

No JS? Fill the form by hand. The geolocation button needs JavaScript.